{"data":{"norad_id":67381,"intl_designator":"2026-004U","name":"AETHER-10","alt_names":[],"object_type":"PAYLOAD","status":"ACTIVE","operator":null,"country":"CA","launch_date":"2026-01-11","launch_site_code":"AFWTR","launch_vehicle":null,"mission":null,"orbit_class":"UNKNOWN","rcs_meters":null,"size_class":null,"mass_kg":null,"dimensions":null,"purposes":[],"wikipedia_slug":null,"has_3d_model":false,"image_url":null,"decayed_at":null,"tle_current":{"epoch":"2026-05-24T22:52:00.711264Z","epoch_age_seconds":79456,"freshness":"FRESH","line1":"1 67381U 26004U   26144.95278601  .00000623  00000+0  73380-4 0  9997","line2":"2 67381  97.8040 144.0234 0005001 181.4491 178.6712 14.88239933 19830","mean_motion":14.88239933,"eccentricity":0.0005001,"inclination_deg":97.804,"raan_deg":144.0234,"arg_perigee_deg":181.4491,"mean_anomaly_deg":178.6712,"bstar":7.338e-5,"rev_number":1983,"period_min":96.75859168066,"perigee_km":599.94326603663,"apogee_km":606.92623410105,"semimajor_km":6981.5717500688,"source":"CELESTRAK","updated_at":"2026-05-25T13:38:06.931800Z"}}}